Find Starlink 30349

NORAD ID: 57713 Int'l Des: 2023-129 Owner: SPXS Country: US Constellation: starlink operational
LEOCIRCULAR

現在のビュー

3D地球を読み込み中...

About Starlink 30349

Starlink 30349 (NORAD 57713) is a starlink constellation satellite (v2 mini) launched Aug 27, 2023 by SPXS of US. It operates in LEO, CIRCULAR orbit with a mass of 730.00 kg.

次回通過

Passes for default location (London). Set your location on the main map for personalized predictions.

高度履歴

Loading altitude history...

軌道要素

1 57713U 23129R 26237.01627164 -.00000148 00000-0 41362-5 0 9992
2 57713 43.0038 247.4814 0001349 265.7233 94.3465 15.27577350166284
Epoch: Aug 25, 2026 • Age: 15 hours

現在のステータス

高度 487.1 km
遠地点 / 近地点 N/A
速度 7.63 km/s
衛星直下点 43.15°N, 134.91°E
打ち上げ日 Aug 27, 2023
運用期間 2.9 years
タイプ internet

技術仕様

分類 Payload
質量 730.00 kg
乾燥質量 700.00 kg
総質量 730.00 kg
長さ 0.30 m
直径 4.10 m
スパン 29.00 m
形状 Box + pan
製造者 SPXS
バスタイプ Starlink V2M
フェーズステータス In Orbit
所有者/国 SPXS/US

Most Searched